Time,TemperatureF,DewpointF,PressureIn,WindDirection,WindDirectionDegrees,WindSpeedMPH,WindSpeedGustMPH,Humidity,HourlyPrecipIn,Conditions,Clouds,dailyrainin,SoftwareType,DateUTC
2013-05-04 00:01:00,26.0,9.0,-100.00,North,0,9.0,16.0,47,0.00,,,-99.99,,2013-05-04 06:01:00,
2013-05-04 00:11:00,26.0,9.0,-100.00,North,355,9.0,18.0,47,0.00,,,-99.99,,2013-05-04 06:11:00,
2013-05-04 00:21:00,25.0,9.0,-100.00,North,0,9.0,16.0,48,0.00,,,-99.99,,2013-05-04 06:21:00,
2013-05-04 00:32:00,25.0,9.0,-100.00,North,0,7.0,15.0,49,0.00,,,-99.99,,2013-05-04 06:32:00,
2013-05-04 00:42:00,25.0,9.0,-100.00,North,0,6.0,12.0,50,0.00,,,-99.99,,2013-05-04 06:42:00,
2013-05-04 00:52:00,24.0,9.0,-100.00,North,10,6.0,11.0,51,0.00,,,-99.99,,2013-05-04 06:52:00,
2013-05-04 01:01:00,24.0,9.0,-100.00,North,0,11.0,19.0,52,0.00,,,-99.99,,2013-05-04 07:01:00,
2013-05-04 01:11:00,24.0,9.0,-100.00,North,0,9.0,14.0,53,0.00,,,-99.99,,2013-05-04 07:11:00,
2013-05-04 01:21:00,24.0,10.0,-100.00,North,0,9.0,13.0,54,0.00,,,-99.99,,2013-05-04 07:21:00,
2013-05-04 01:32:00,23.0,10.0,-100.00,NNW,345,10.0,16.0,55,0.00,,,-99.99,,2013-05-04 07:32:00,
2013-05-04 01:42:00,23.0,10.0,-100.00,North,0,10.0,15.0,56,0.00,,,-99.99,,2013-05-04 07:42:00,
2013-05-04 01:52:00,23.0,10.0,-100.00,North,0,6.0,14.0,57,0.00,,,-99.99,,2013-05-04 07:52:00,
2013-05-04 02:01:00,23.0,10.0,-100.00,North,0,6.0,12.0,58,0.00,,,-99.99,,2013-05-04 08:01:00,
2013-05-04 02:11:00,23.0,10.0,-100.00,North,5,7.0,11.0,58,0.00,,,-99.99,,2013-05-04 08:11:00,
2013-05-04 02:21:00,23.0,11.0,-100.00,North,0,5.0,11.0,59,0.00,,,-99.99,,2013-05-04 08:21:00,
2013-05-04 02:31:00,22.0,11.0,-100.00,NE,40,6.0,11.0,60,0.00,,,-99.99,,2013-05-04 08:31:00,
2013-05-04 02:42:00,22.0,11.0,-100.00,North,0,6.0,10.0,60,0.00,,,-99.99,,2013-05-04 08:42:00,
2013-05-04 02:52:00,21.0,10.0,-100.00,North,0,6.0,9.0,62,0.00,,,-99.99,,2013-05-04 08:52:00,
2013-05-04 03:02:00,21.0,11.0,-100.00,North,0,7.0,9.0,62,0.00,,,-99.99,,2013-05-04 09:02:00,
2013-05-04 03:11:00,21.0,11.0,-100.00,North,5,6.0,10.0,63,0.00,,,-99.99,,2013-05-04 09:11:00,
2013-05-04 03:21:00,22.0,11.0,-100.00,North,0,7.0,11.0,63,0.00,,,-99.99,,2013-05-04 09:21:00,
2013-05-04 03:32:00,21.0,11.0,-100.00,North,0,6.0,11.0,63,0.00,,,-99.99,,2013-05-04 09:32:00,
2013-05-04 03:42:00,21.0,11.0,-100.00,North,0,7.0,11.0,64,0.00,,,-99.99,,2013-05-04 09:42:00,
2013-05-04 03:52:00,21.0,11.0,-100.00,North,0,6.0,11.0,64,0.00,,,-99.99,,2013-05-04 09:52:00,
2013-05-04 04:03:00,21.0,11.0,-100.00,North,5,7.0,9.0,65,0.00,,,-99.99,,2013-05-04 10:03:00,
2013-05-04 04:12:00,21.0,11.0,-100.00,North,0,4.0,11.0,65,0.00,,,-99.99,,2013-05-04 10:12:00,
2013-05-04 04:23:00,21.0,11.0,-100.00,North,0,4.0,9.0,65,0.00,,,-99.99,,2013-05-04 10:23:00,
2013-05-04 04:33:00,20.0,11.0,-100.00,North,0,6.0,8.0,66,0.00,,,-99.99,,2013-05-04 10:33:00,
2013-05-04 04:42:00,20.0,11.0,-100.00,North,355,7.0,9.0,67,0.00,,,-99.99,,2013-05-04 10:42:00,
2013-05-04 04:52:00,19.0,10.0,-100.00,North,0,5.0,8.0,69,0.00,,,-99.99,,2013-05-04 10:52:00,
2013-05-04 05:02:00,19.0,11.0,-100.00,North,0,3.0,9.0,70,0.00,,,-99.99,,2013-05-04 11:02:00,
2013-05-04 05:11:00,19.0,11.0,-100.00,NNW,340,7.0,10.0,70,0.00,,,-99.99,,2013-05-04 11:11:00,
2013-05-04 05:21:00,19.0,11.0,-100.00,NNW,345,6.0,9.0,71,0.00,,,-99.99,,2013-05-04 11:21:00,
2013-05-04 05:32:00,19.0,11.0,-100.00,North,350,6.0,8.0,70,0.00,,,-99.99,,2013-05-04 11:32:00,
2013-05-04 05:43:00,19.0,11.0,-100.00,North,355,4.0,7.0,71,0.00,,,-99.99,,2013-05-04 11:43:00,
2013-05-04 05:56:00,20.0,11.0,-100.00,North,350,5.0,7.0,68,0.00,,,-99.99,,2013-05-04 11:56:00,
2013-05-04 06:06:00,20.0,11.0,-100.00,NNW,345,6.0,8.0,67,0.00,,,-99.99,,2013-05-04 12:06:00,
2013-05-04 06:13:00,20.0,11.0,-100.00,North,350,6.0,7.0,67,0.00,,,-99.99,,2013-05-04 12:13:00,
2013-05-04 06:36:00,20.0,11.0,-100.00,North,355,4.0,7.0,66,0.00,,,-99.99,,2013-05-04 12:36:00,
2013-05-04 06:42:00,21.0,11.0,-100.00,North,355,4.0,6.0,65,0.00,,,-99.99,,2013-05-04 12:42:00,
2013-05-04 06:51:00,21.0,11.0,-100.00,NNW,335,6.0,9.0,62,0.00,,,-99.99,,2013-05-04 12:51:00,
2013-05-04 07:01:00,20.0,10.0,-100.00,North,0,3.0,7.0,64,0.00,,,-99.99,,2013-05-04 13:01:00,
2013-05-04 07:11:00,20.0,10.0,-100.00,North,355,4.0,7.0,64,0.00,,,-99.99,,2013-05-04 13:11:00,
2013-05-04 07:32:00,20.0,10.0,-100.00,North,0,4.0,7.0,64,0.00,,,-99.99,,2013-05-04 13:32:00,
2013-05-04 07:42:00,21.0,10.0,-100.00,North,355,6.0,7.0,63,0.00,,,-99.99,,2013-05-04 13:42:00,
2013-05-04 07:52:00,21.0,10.0,-100.00,North,0,6.0,8.0,62,0.00,,,-99.99,,2013-05-04 13:52:00,
2013-05-04 08:02:00,21.0,10.0,-100.00,North,0,5.0,8.0,62,0.00,,,-99.99,,2013-05-04 14:02:00,
2013-05-04 08:11:00,21.0,11.0,-100.00,North,0,5.0,8.0,63,0.00,,,-99.99,,2013-05-04 14:11:00,
2013-05-04 08:21:00,24.0,11.0,-100.00,North,0,6.0,8.0,57,0.00,,,-99.99,,2013-05-04 14:21:00,
2013-05-04 08:32:00,26.0,12.0,-100.00,North,355,4.0,9.0,56,0.00,,,-99.99,,2013-05-04 14:32:00,
2013-05-04 08:42:00,26.0,12.0,-100.00,North,0,3.0,9.0,54,0.00,,,-99.99,,2013-05-04 14:42:00,
2013-05-04 08:51:00,26.0,12.0,-100.00,North,0,3.0,9.0,54,0.00,,,-99.99,,2013-05-04 14:51:00,
2013-05-04 09:02:00,28.0,12.0,-100.00,North,0,6.0,9.0,51,0.00,,,-99.99,,2013-05-04 15:02:00,
2013-05-04 09:12:00,29.0,12.0,-100.00,NNW,345,6.0,9.0,49,0.00,,,-99.99,,2013-05-04 15:12:00,
2013-05-04 09:22:00,29.0,12.0,-100.00,NNW,345,6.0,9.0,49,0.00,,,-99.99,,2013-05-04 15:22:00,
2013-05-04 09:33:00,30.0,12.0,-100.00,North,0,6.0,11.0,46,0.00,,,-99.99,,2013-05-04 15:33:00,
2013-05-04 09:43:00,31.0,13.0,-100.00,NNE,30,2.0,11.0,46,0.00,,,-99.99,,2013-05-04 15:43:00,
2013-05-04 09:53:00,31.0,12.0,-100.00,North,355,4.0,10.0,45,0.00,,,-99.99,,2013-05-04 15:53:00,
2013-05-04 10:03:00,31.0,12.0,-100.00,NNE,25,5.0,10.0,44,0.00,,,-99.99,,2013-05-04 16:03:00,
2013-05-04 10:12:00,33.0,13.0,-100.00,North,10,5.0,13.0,44,0.00,,,-99.99,,2013-05-04 16:12:00,
2013-05-04 10:22:00,33.0,14.0,-100.00,North,0,4.0,13.0,44,0.00,,,-99.99,,2013-05-04 16:22:00,
2013-05-04 10:33:00,33.0,13.0,-100.00,NE,35,4.0,11.0,43,0.00,,,-99.99,,2013-05-04 16:33:00,
2013-05-04 10:42:00,33.0,14.0,-100.00,North,0,4.0,13.0,44,0.00,,,-99.99,,2013-05-04 16:42:00,
2013-05-04 10:52:00,33.0,13.0,-100.00,North,355,6.0,14.0,43,0.00,,,-99.99,,2013-05-04 16:52:00,
2013-05-04 11:02:00,33.0,13.0,-100.00,NE,45,4.0,14.0,43,0.00,,,-99.99,,2013-05-04 17:02:00,
2013-05-04 11:12:00,33.0,13.0,-100.00,North,0,11.0,15.0,43,0.00,,,-99.99,,2013-05-04 17:12:00,
2013-05-04 11:22:00,33.0,13.0,-100.00,NNW,330,7.0,12.0,42,0.00,,,-99.99,,2013-05-04 17:22:00,
2013-05-04 11:32:00,35.0,14.0,-100.00,North,0,4.0,11.0,40,0.00,,,-99.99,,2013-05-04 17:32:00,
2013-05-04 11:42:00,35.0,13.0,-100.00,NW,310,3.0,11.0,39,0.00,,,-99.99,,2013-05-04 17:42:00,
2013-05-04 11:52:00,35.0,13.0,-100.00,NNW,340,8.0,13.0,38,0.00,,,-99.99,,2013-05-04 17:52:00,
2013-05-04 12:01:00,37.0,14.0,-100.00,ESE,110,3.0,16.0,39,0.00,,,-99.99,,2013-05-04 18:01:00,
2013-05-04 12:12:00,36.0,13.0,-100.00,NNW,335,4.0,14.0,38,0.00,,,-99.99,,2013-05-04 18:12:00,
2013-05-04 12:21:00,36.0,13.0,-100.00,NE,40,7.0,11.0,37,0.00,,,-99.99,,2013-05-04 18:21:00,
2013-05-04 12:32:00,37.0,14.0,-100.00,NNE,25,6.0,11.0,38,0.00,,,-99.99,,2013-05-04 18:32:00,
2013-05-04 12:42:00,36.0,13.0,-100.00,NNW,335,12.0,15.0,38,0.00,,,-99.99,,2013-05-04 18:42:00,
2013-05-04 12:52:00,37.0,13.0,-100.00,North,0,6.0,11.0,38,0.00,,,-99.99,,2013-05-04 18:52:00,
2013-05-04 13:01:00,37.0,13.0,-100.00,NE,50,3.0,11.0,37,0.00,,,-99.99,,2013-05-04 19:01:00,
2013-05-04 13:11:00,37.0,13.0,-100.00,North,0,4.0,12.0,37,0.00,,,-99.99,,2013-05-04 19:11:00,
2013-05-04 13:21:00,36.0,12.0,-100.00,North,0,6.0,14.0,37,0.00,,,-99.99,,2013-05-04 19:21:00,
2013-05-04 13:32:00,36.0,13.0,-100.00,NNW,340,7.0,17.0,38,0.00,,,-99.99,,2013-05-04 19:32:00,
2013-05-04 13:42:00,36.0,13.0,-100.00,NNW,345,6.0,15.0,37,0.00,,,-99.99,,2013-05-04 19:42:00,
2013-05-04 13:52:00,35.0,12.0,-100.00,NNW,335,9.0,14.0,37,0.00,,,-99.99,,2013-05-04 19:52:00,
2013-05-04 14:02:00,36.0,13.0,-100.00,North,0,8.0,12.0,37,0.00,,,-99.99,,2013-05-04 20:02:00,
2013-05-04 14:11:00,37.0,13.0,-100.00,NE,55,1.0,15.0,36,0.00,,,-99.99,,2013-05-04 20:11:00,
2013-05-04 14:22:00,39.0,14.0,-100.00,SE,125,6.0,11.0,35,0.00,,,-99.99,,2013-05-04 20:22:00,
2013-05-04 14:32:00,38.0,13.0,-100.00,NE,35,4.0,9.0,35,0.00,,,-99.99,,2013-05-04 20:32:00,
2013-05-04 14:42:00,38.0,13.0,-100.00,East,100,4.0,9.0,35,0.00,,,-99.99,,2013-05-04 20:42:00,
2013-05-04 14:52:00,39.0,14.0,-100.00,NW,325,3.0,9.0,35,0.00,,,-99.99,,2013-05-04 20:52:00,
2013-05-04 15:02:00,38.0,13.0,-100.00,NNW,340,7.0,13.0,35,0.00,,,-99.99,,2013-05-04 21:02:00,
2013-05-04 15:12:00,37.0,13.0,-100.00,NW,320,9.0,15.0,36,0.00,,,-99.99,,2013-05-04 21:12:00,
2013-05-04 15:22:00,37.0,13.0,-100.00,NNE,20,4.0,13.0,36,0.00,,,-99.99,,2013-05-04 21:22:00,
2013-05-04 15:33:00,38.0,13.0,-100.00,NNW,340,2.0,4.0,35,0.00,,,-99.99,,2013-05-04 21:33:00,
2013-05-04 15:43:00,37.0,13.0,-100.00,South,170,7.0,13.0,36,0.00,,,-99.99,,2013-05-04 21:43:00,
2013-05-04 15:53:00,37.0,14.0,-100.00,SSE,165,6.0,10.0,37,0.00,,,-99.99,,2013-05-04 21:53:00,
2013-05-04 16:03:00,39.0,15.0,-100.00,South,180,6.0,17.0,37,0.00,,,-99.99,,2013-05-04 22:03:00,
2013-05-04 16:12:00,40.0,15.0,-100.00,South,180,14.0,21.0,35,0.00,,,-99.99,,2013-05-04 22:12:00,
2013-05-04 16:22:00,39.0,15.0,-100.00,South,185,10.0,20.0,36,0.00,,,-99.99,,2013-05-04 22:22:00,
2013-05-04 16:33:00,40.0,14.0,-100.00,SSE,150,6.0,9.0,34,0.00,,,-99.99,,2013-05-04 22:33:00,
2013-05-04 16:42:00,40.0,14.0,-100.00,West,280,1.0,10.0,33,0.00,,,-99.99,,2013-05-04 22:42:00,
2013-05-04 16:52:00,39.0,14.0,-100.00,South,190,4.0,11.0,34,0.00,,,-99.99,,2013-05-04 22:52:00,
2013-05-04 17:02:00,39.0,13.0,-100.00,SSE,165,4.0,12.0,34,0.00,,,-99.99,,2013-05-04 23:02:00,
2013-05-04 17:12:00,38.0,13.0,-100.00,NNE,30,4.0,8.0,34,0.00,,,-99.99,,2013-05-04 23:12:00,
2013-05-04 17:22:00,38.0,14.0,-100.00,NNE,15,6.0,12.0,36,0.00,,,-99.99,,2013-05-04 23:22:00,
2013-05-04 17:32:00,37.0,13.0,-100.00,NW,325,8.0,13.0,37,0.00,,,-99.99,,2013-05-04 23:32:00,
2013-05-04 17:42:00,37.0,14.0,-100.00,NNW,340,2.0,11.0,37,0.00,,,-99.99,,2013-05-04 23:42:00,
2013-05-04 17:52:00,37.0,14.0,-100.00,NNW,335,7.0,14.0,38,0.00,,,-99.99,,2013-05-04 23:52:00,
2013-05-04 18:02:00,36.0,14.0,-100.00,NNW,330,14.0,22.0,39,0.00,,,-99.99,,2013-05-05 00:02:00,
2013-05-04 18:11:00,35.0,14.0,-100.00,NNW,330,6.0,15.0,41,0.00,,,-99.99,,2013-05-05 00:11:00,
2013-05-04 18:21:00,33.0,15.0,-100.00,NNW,345,6.0,22.0,47,0.40,,,-99.99,,2013-05-05 00:21:00,
2013-05-04 18:32:00,31.0,18.0,-100.00,East,100,2.0,13.0,58,0.30,,,-99.99,,2013-05-05 00:32:00,
2013-05-04 18:42:00,31.0,21.0,-100.00,South,170,5.0,10.0,65,0.00,,,-99.99,,2013-05-05 00:42:00,
2013-05-04 18:52:00,31.0,21.0,-100.00,NNE,20,2.0,10.0,68,0.00,,,-99.99,,2013-05-05 00:52:00,
2013-05-04 19:01:00,30.0,23.0,-100.00,NNW,340,7.0,12.0,73,0.40,,,-99.99,,2013-05-05 01:01:00,
2013-05-04 19:11:00,30.0,23.0,-100.00,NNW,330,3.0,6.0,76,0.00,,,-99.99,,2013-05-05 01:11:00,
2013-05-04 19:21:00,31.0,23.0,-100.00,North,10,2.0,7.0,73,0.00,,,-99.99,,2013-05-05 01:21:00,
2013-05-04 19:32:00,31.0,24.0,-100.00,South,175,9.0,12.0,75,0.00,,,-99.99,,2013-05-05 01:32:00,
2013-05-04 19:42:00,30.0,24.0,-100.00,South,185,5.0,14.0,77,0.70,,,-99.99,,2013-05-05 01:42:00,
2013-05-04 19:52:00,28.0,24.0,-100.00,North,0,6.0,14.0,85,1.00,,,-99.99,,2013-05-05 01:52:00,
2013-05-04 20:02:00,27.0,24.0,-100.00,NNE,15,6.0,15.0,89,0.60,,,-99.99,,2013-05-05 02:02:00,
2013-05-04 20:11:00,27.0,25.0,-100.00,NNW,345,13.0,19.0,91,0.20,,,-99.99,,2013-05-05 02:11:00,
2013-05-04 20:22:00,27.0,26.0,-100.00,North,350,9.0,15.0,93,0.30,,,-99.99,,2013-05-05 02:22:00,
2013-05-04 20:32:00,27.0,26.0,-100.00,NNW,345,11.0,18.0,94,0.10,,,-99.99,,2013-05-05 02:32:00,
2013-05-04 20:42:00,27.0,26.0,-100.00,North,0,8.0,18.0,95,0.90,,,-99.99,,2013-05-05 02:42:00,
2013-05-04 20:52:00,27.0,26.0,-100.00,North,0,9.0,16.0,95,2.80,,,-99.99,,2013-05-05 02:52:00,
2013-05-04 21:01:00,27.0,26.0,-100.00,NNE,25,4.0,13.0,95,2.00,,,-99.99,,2013-05-05 03:01:00,
2013-05-04 21:11:00,27.0,26.0,-100.00,NNW,345,6.0,11.0,95,1.60,,,-99.99,,2013-05-05 03:11:00,
2013-05-04 21:22:00,27.0,26.0,-100.00,ENE,70,1.0,13.0,95,0.60,,,-99.99,,2013-05-05 03:22:00,
2013-05-04 21:33:00,27.0,26.0,-100.00,North,10,6.0,16.0,95,1.70,,,-99.99,,2013-05-05 03:33:00,
2013-05-04 21:42:00,27.0,26.0,-100.00,NNE,15,4.0,12.0,95,0.20,,,-99.99,,2013-05-05 03:42:00,
2013-05-04 21:53:00,26.0,25.0,-100.00,North,0,6.0,12.0,94,0.20,,,-99.99,,2013-05-05 03:53:00,
2013-05-04 22:02:00,26.0,25.0,-100.00,NNW,335,10.0,16.0,94,0.30,,,-99.99,,2013-05-05 04:02:00,
2013-05-04 22:12:00,26.0,25.0,-100.00,North,355,11.0,16.0,94,0.00,,,-99.99,,2013-05-05 04:12:00,
2013-05-04 22:23:00,26.0,24.0,-100.00,North,355,10.0,17.0,95,0.00,,,-99.99,,2013-05-05 04:23:00,
2013-05-04 22:32:00,26.0,24.0,-100.00,North,355,10.0,19.0,94,0.00,,,-99.99,,2013-05-05 04:32:00,
2013-05-04 22:43:00,25.0,24.0,-100.00,North,0,9.0,17.0,94,0.10,,,-99.99,,2013-05-05 04:43:00,
2013-05-04 22:52:00,25.0,24.0,-100.00,North,0,11.0,16.0,94,0.00,,,-99.99,,2013-05-05 04:52:00,
2013-05-04 23:02:00,25.0,24.0,-100.00,NNW,345,10.0,14.0,94,0.00,,,-99.99,,2013-05-05 05:02:00,
2013-05-04 23:12:00,25.0,24.0,-100.00,North,0,9.0,16.0,94,0.00,,,-99.99,,2013-05-05 05:12:00,
2013-05-04 23:21:00,25.0,23.0,-100.00,NNW,340,10.0,14.0,94,0.00,,,-99.99,,2013-05-05 05:21:00,
2013-05-04 23:32:00,24.0,23.0,-100.00,North,350,7.0,14.0,94,0.00,,,-99.99,,2013-05-05 05:32:00,
2013-05-04 23:42:00,24.0,23.0,-100.00,North,0,6.0,12.0,93,0.00,,,-99.99,,2013-05-05 05:42:00,
2013-05-04 23:51:00,24.0,22.0,-100.00,North,0,6.0,12.0,93,0.00,,,-99.99,,2013-05-05 05:51:00,